Regional Weather Roundup
Issued by NWS

Home | Current Version | Previous Version | Text Only | Print | Product List | Glossary On
Versions: 1 2 3 4 5 6 7 8 9 10 11 12 13 14 15 16 17 18 19 20 21 22 23 24 25 26 27 28 29 30 31 32 33 34 35 36 37 38 39 40 41 42 43 44 45 46 47 48 49 50
048
ASUS43 KDMX 230701
RWRIA

WEATHER ROUNDUP FOR IOWA
NATIONAL WEATHER SERVICE DES MOINES IA
100 AM CST FRI FEB 23 2018

NOTE: "FAIR" INDICATES FEW OR NO CLOUDS BELOW 12,000 FEET WITH NO
SIGNIFICANT WEATHER AND/OR OBSTRUCTIONS TO VISIBILITY.

* - THESE STATIONS ARE NOT NWS STATIONS...THUS NOT UNDER NWS
QUALITY CONTROL.  THEY ALSO DO NOT REPORT WEATHER SUCH
AS PRECIPITATION OR FOG.

IAZ001>003-012>014-020>022-031>034-043>046-230800-
   NORTHWEST IOWA

CITY           SKY/WX    TMP DP  RH WIND       PRES   REMARKS
CARROLL *      LGT SNOW  32  32 100 SW8       30.11F WCI  25
CHEROKEE *     CLOUDY    27  27 100 SW3       30.13S
DENISON *      CLOUDY    28  28 100 W8        30.16R WCI  20
LE MARS *      CLOUDY    27  25  93 VRB5      30.14S WCI  21
ORANGE CITY *  CLOUDY    27  27 100 W10       30.12S FOG     WCI  17
SHELDON *      CLOUDY    25  25 100 W10       30.09F WCI  15
SIOUX CITY     CLOUDY    26  24  92 W8        30.16R WCI  18
SPENCER        CLOUDY    28  26  92 SW8       30.10S WCI  20
STORM LAKE *   MOCLDY    27  27 100 W10       30.11S WCI  17
$$

IAZ055>058-069>071-079>083-090>094-230800-
   SOUTHWEST IOWA

CITY           SKY/WX    TMP DP  RH WIND       PRES   REMARKS
ATLANTIC *     CLOUDY    32  32 100 SW8       30.15R WCI  25
AUDUBON *      FLURRIES  30  28  93 CALM      30.13F
CLARINDA *     CLOUDY    32  32 100 W6        30.20R WCI  26
COUNCIL BLFS * CLOUDY    30  30 100 W9        30.16R WCI  22
CRESTON *      CLOUDY    32  32 100 SW6       30.15S FOG     WCI  26
HARLAN  *      CLOUDY    30  30 100 W7        30.18R WCI  23
LAMONI         CLOUDY    32  31  96 CALM      30.14F
RED OAK *      CLOUDY    32  32 100 SW6       30.17R WCI  26
SHENANDOAH *   CLOUDY    32  32 100 SW7       30.18S WCI  26
$$

IAZ047>049-059>061-072>074-084-230800-
   CENTRAL IOWA

CITY           SKY/WX    TMP DP  RH WIND       PRES   REMARKS
AMES           MIX PCPN  32  32 100 SW5       30.14F FOG     WCI  27
ANKENY *       LGT RAIN  32  32 100 CALM      30.15F
BOONE *        LGT RAIN  32  32 100 MISG      30.11S
CHARITON *     CLOUDY    32  32 100 W5        30.14F FOG     WCI  27
DES MOINES     DRIZZLE   33  32  96 S3        30.14F FOG
GRINNELL*      DRIZZLE   33  33  99 SW7       30.15S WCI  27
KNOXVILLE *    CLOUDY    34  34 100 W5        30.14F FOG     WCI  30
MARSHALLTOWN   LGT RAIN  33  33 100 SW7       30.13F FOG     WCI  27
NEWTON *       LGT RAIN  32  32 100 SW7       30.15F WCI  26
PELLA *        LGT RAIN  33  33  99 W7        30.18R WCI  27
$$

IAZ004>006-015-016-023>025-035-036-230800-
   NORTH CENTRAL IOWA

CITY           SKY/WX    TMP DP  RH WIND       PRES   REMARKS
CLARION *      CLOUDY    32  32 100 S7        30.11F FOG     WCI  26
ESTHERVILLE    CLOUDY    28  27  96 SW5       30.08F FOG     WCI  23
FORT DODGE *   LGT SNOW  31  31 100 S6        30.10F FOG     WCI  25
MASON CITY     LGT SNOW  32  30  92 SE8       30.11F FOG     WCI  25
FOREST CITY *  LGT SNOW  32  32 100 S3        30.09F
WEBSTER CITY * LGT SNOW  32  32 100 S5        30.09F WCI  27
IOWA FALLS *   LGT SNOW  33  33  97 CALM      30.12F
$$

IAZ007>011-017>019-026>030-037>042-050>054-066-230800-
   NORTHEAST IOWA

CITY           SKY/WX    TMP DP  RH WIND       PRES   REMARKS
CEDAR RAPIDS   LGT RAIN  36  32  85 SE6       30.10F WCI  31
CHARLES CITY * MIX PCPN  34  34 100 S7        30.12F WCI  28
CLINTON *      LGT RAIN  35  35 100 E12       30.15F VSB 1/4 WCI  27
DECORAH *      MIX PCPN  32  32 100 SE13G18   30.11S WCI  22
DUBUQUE        MIX PCPN  33  32  96 SE8       30.12F VSB 1/2 WCI  26
MONTICELLO *   MIX PCPN  34  34 100 SE9       30.12F VSB 3/4 WCI  26
OELWEIN *      LGT RAIN  34  34 100 SE13      30.11F WCI  25
WATERLOO       LGT RAIN  33  33 100 CALM      30.12F FOG
$$

IAZ064-065-067-068-078-230800-
   EAST CENTRAL IOWA

CITY           SKY/WX    TMP DP  RH WIND       PRES   REMARKS
DAVENPORT      FOG       38  36  92 SE10      30.16F VSB 1/4 WCI  31
IOWA CITY      LGT RAIN  37  36  96 SE8       30.14F VSB 1/2 WCI  31
MT. PLEASANT * LGT RAIN  37  37 100 S9        30.13F WCI  31
MUSCATINE *    MIX PCPN  39  39 100 SE9       30.14F VSB 1/2 WCI  33
QUAD CITIES    FOG       38  37  97 E8        30.14F VSB 1/2 WCI  32
$$

IAZ062-063-075>077-085>089-095>099-230800-
   SOUTHEAST IOWA

CITY           SKY/WX    TMP DP  RH WIND       PRES   REMARKS
BURLINGTON     LGT RAIN  38  38 100 E6        30.12F VSB 3/4 WCI  33
FAIRFIELD *    CLOUDY    37  37 100 SW8       30.13R FOG     WCI  31
FORT MADISON * LGT RAIN  39  39 100 SE6       30.15S WCI  35
KEOKUK *       LGT RAIN  39  39 100 S6        30.14F WCI  35
OSKALOOSA *    HVY RAIN  34  33  98 W10       30.17R WCI  26
OTTUMWA        LGT RAIN  36  36 100 W13       30.17R FOG     WCI  27
WASHINGTON *   LGT RAIN  37  37 100 SE8       30.12F VSB 1/4 WCI  31
$$

ABBREVIATIONS USED IN REMARKS
   TC - TEMPERATURES IN CELSIUS
  WCI - WIND CHILL INDEX
   HX - HEAT INDEX
  VSB - VISIBILITY
$$





USA.gov is the U.S. government's official web portal to all federal, state and local government web resources and services.